Tracking 23611 objects as of 18-Sep-2021
HD Live streaming from Space Station
objects crossing your sky now
Track INSPIRATION-4

STARLINK-1886

Track STARLINK-1886 now!
10-day predictions
STARLINK-1886 is classified as:


NORAD ID: 47169
Int'l Code: 2020-088AZ
Perigee: 360.1 km
Apogee: 371.1 km
Inclination: 53.1 °
Period: 91.7 minutes
Semi major axis: 6736 km
RCS: Unknown
Launch date: November 25, 2020
Source: United States (US)
Launch site: AIR FORCE EASTERN TEST RANGE (AFETR)
aabbcc
Your satellite tracking list
Your tracking list is empty




NASA's NSSDC Master Catalog

Two Line Element Set (TLE):
1 47169U 20088AZ  21261.40637704  .01227732  00000-0  89395-2 0  9998
2 47169  53.0682  36.8730 0008163 271.0736  88.9346 15.70140981 46491
Source of the keplerian elements: AFSPC